| time (UTC) | temp C | wind direction | speed KPH | gust KPH | rain 1hr cm | rain 24hr cm | rain mn cm | humidity % | barometer mb |
| 20260904155744 | 38 | 276 | 4.8 | 12.9 | 0.00 | 0.00 | 0.00 | 39 | 1016.0 |
| 20260904154823 | 39 | 302 | 3.2 | 8.0 | 0.00 | 0.00 | 0.00 | 39 | 1016.2 |
| 20260904153944 | 38 | 310 | 3.2 | 11.3 | 0.00 | 0.00 | 0.00 | 39 | 1016.2 |
| 20260904153023 | 38 | 275 | 3.2 | 9.7 | 0.00 | 0.00 | 0.00 | 40 | 1016.3 |
| 20260904152122 | 38 | 307 | 4.8 | 9.7 | 0.00 | 0.00 | 0.00 | 40 | 1016.4 |
| 20260904151223 | 38 | 250 | 4.8 | 11.3 | 0.00 | 0.00 | 0.00 | 42 | 1016.6 |
| 20260904150323 | 38 | 272 | 3.2 | 11.3 | 0.00 | 0.00 | 0.00 | 42 | 1016.6 |
| 20260904145423 | 37 | 271 | 4.8 | 6.4 | 0.00 | 0.00 | 0.00 | 43 | 1016.6 |
| 20260904144544 | 37 | 288 | 1.6 | 11.3 | 0.00 | 0.00 | 0.00 | 44 | 1016.8 |
| 20260904143622 | 37 | 355 | 3.2 | 6.4 | 0.00 | 0.00 | 0.00 | 45 | 1016.9 |
| 20260904142722 | 37 | 265 | 3.2 | 9.7 | 0.00 | 0.00 | 0.00 | 44 | 1017.2 |
| 20260904141822 | 36 | 298 | 3.2 | 4.8 | 0.00 | 0.00 | 0.00 | 47 | 1017.4 |
| 20260904140922 | 36 | 287 | 3.2 | 11.3 | 0.00 | 0.00 | 0.00 | 49 | 1017.5 |
| 20260904140022 | 36 | 313 | 3.2 | 11.3 | 0.00 | 0.00 | 0.00 | 49 | 1017.7 |
| 20260904135122 | 35 | 246 | 3.2 | 8.0 | 0.00 | 0.00 | 0.00 | 51 | 1017.8 |
| 20260904134222 | 35 | 232 | 4.8 | 8.0 | 0.00 | 0.00 | 0.00 | 51 | 1018.0 |
| 20260904133322 | 34 | 244 | 4.8 | 11.3 | 0.00 | 0.00 | 0.00 | 52 | 1018.2 |
| 20260904132422 | 34 | 273 | 3.2 | 9.7 | 0.00 | 0.00 | 0.00 | 52 | 1018.1 |
| 20260904131522 | 33 | 79 | 3.2 | 8.0 | 0.00 | 0.00 | 0.00 | 53 | 1018.1 |
| 20260904130643 | 33 | 146 | 3.2 | 11.3 | 0.00 | 0.00 | 0.00 | 54 | 1018.2 |
| 20260904125722 | 33 | 210 | 3.2 | 6.4 | 0.00 | 0.00 | 0.00 | 55 | 1018.5 |
| 20260904124822 | 33 | 238 | 3.2 | 6.4 | 0.00 | 0.00 | 0.00 | 56 | 1018.7 |
| 20260904123922 | 33 | 279 | 3.2 | 9.7 | 0.00 | 0.00 | 0.00 | 56 | 1018.6 |
| 20260904123022 | 33 | 293 | 1.6 | 4.8 | 0.00 | 0.00 | 0.00 | 56 | 1018.8 |
| 20260904122143 | 32 | 187 | 1.6 | 4.8 | 0.00 | 0.00 | 0.00 | 57 | 1019.0 |
| 20260904121222 | 32 | 174 | 1.6 | 6.4 | 0.00 | 0.00 | 0.00 | 58 | 1019.2 |
| 20260904120322 | 31 | 203 | 1.6 | 8.0 | 0.00 | 0.00 | 0.00 | 61 | 1019.2 |
| 20260904115422 | 30 | 178 | 3.2 | 4.8 | 0.00 | 0.00 | 0.00 | 63 | 1019.4 |
| 20260904114522 | 30 | 223 | 3.2 | 6.4 | 0.00 | 0.00 | 0.00 | 64 | 1019.3 |
| 20260904113622 | 30 | 219 | 3.2 | 8.0 | 0.00 | 0.00 | 0.00 | 66 | 1019.5 |
| 20260904112722 | 30 | 227 | 3.2 | 8.0 | 0.00 | 0.00 | 0.00 | 66 | 1019.7 |
| 20260904111822 | 30 | 223 | 3.2 | 8.0 | 0.00 | 0.00 | 0.00 | 66 | 1019.8 |
| 20260904110922 | 30 | 252 | 4.8 | 9.7 | 0.00 | 0.00 | 0.00 | 66 | 1019.9 |
| 20260904110022 | 30 | 238 | 3.2 | 8.0 | 0.00 | 0.00 | 0.00 | 67 | 1019.9 |
| 20260904105122 | 30 | 197 | 3.2 | 8.0 | 0.00 | 0.00 | 0.00 | 68 | 1020.0 |
| 20260904104222 | 29 | 209 | 3.2 | 8.0 | 0.00 | 0.00 | 0.00 | 69 | 1020.0 |
| 20260904103322 | 29 | 209 | 3.2 | 8.0 | 0.00 | 0.00 | 0.00 | 69 | 1020.1 |
| 20260904102443 | 30 | 183 | 3.2 | 8.0 | 0.00 | 0.00 | 0.00 | 68 | 1020.2 |
| 20260904101522 | 29 | 137 | 3.2 | 11.3 | 0.00 | 0.00 | 0.00 | 70 | 1020.3 |
| 20260904100622 | 30 | 338 | 3.2 | 6.4 | 0.00 | 0.00 | 0.00 | 70 | 1020.3 |
| 20260904095722 | 28 | 202 | 1.6 | 8.0 | 0.00 | 0.00 | 0.00 | 72 | 1020.6 |
| 20260904094822 | 28 | 271 | 1.6 | 4.8 | 0.00 | 0.00 | 0.00 | 74 | 1020.6 |
| 20260904093943 | 27 | 220 | 1.6 | 4.8 | 0.00 | 0.00 | 0.00 | 76 | 1020.6 |
| 20260904093021 | 27 | 199 | 3.2 | 9.7 | 0.00 | 0.00 | 0.00 | 76 | 1020.6 |
| 20260904092143 | 27 | 152 | 1.6 | 8.0 | 0.00 | 0.00 | 0.00 | 76 | 1020.6 |
| 20260904091221 | 27 | 179 | 1.6 | 6.4 | 0.00 | 0.00 | 0.00 | 77 | 1020.5 |
| 20260904090321 | 26 | 160 | 3.2 | 6.4 | 0.00 | 0.00 | 0.00 | 78 | 1020.6 |
| 20260904085421 | 26 | 149 | 3.2 | 9.7 | 0.00 | 0.00 | 0.00 | 80 | 1020.5 |
| 20260904084521 | 26 | 199 | 3.2 | 9.7 | 0.00 | 0.00 | 0.00 | 81 | 1020.4 |
| 20260904083642 | 26 | 234 | 3.2 | 9.7 | 0.00 | 0.00 | 0.00 | 82 | 1020.7 |
| 20260904082721 | 25 | 215 | 4.8 | 9.7 | 0.00 | 0.00 | 0.00 | 82 | 1020.5 |
| 20260904081821 | 25 | 216 | 3.2 | 9.7 | 0.00 | 0.00 | 0.00 | 82 | 1020.5 |
| 20260904080921 | 25 | 214 | 4.8 | 9.7 | 0.00 | 0.00 | 0.00 | 83 | 1020.2 |
| 20260904080021 | 25 | 222 | 4.8 | 8.0 | 0.00 | 0.00 | 0.00 | 83 | 1020.2 |
| 20260904075121 | 25 | 187 | 3.2 | 8.0 | 0.00 | 0.00 | 0.00 | 82 | 1020.0 |
| 20260904074221 | 25 | 224 | 3.2 | 8.0 | 0.00 | 0.00 | 0.00 | 83 | 1020.1 |
| 20260904073321 | 25 | 231 | 3.2 | 11.3 | 0.00 | 0.00 | 0.00 | 83 | 1020.1 |
| 20260904072421 | 25 | 217 | 3.2 | 11.3 | 0.00 | 0.00 | 0.00 | 83 | 1020.0 |
| 20260904071542 | 25 | 230 | 3.2 | 8.0 | 0.00 | 0.00 | 0.00 | 83 | 1020.0 |
| 20260904070642 | 25 | 225 | 3.2 | 9.7 | 0.00 | 0.00 | 0.00 | 83 | 1020.1 |
| 20260904065721 | 25 | 237 | 3.2 | 8.0 | 0.00 | 0.00 | 0.00 | 83 | 1020.0 |
| 20260904064821 | 25 | 259 | 3.2 | 8.0 | 0.00 | 0.00 | 0.00 | 83 | 1020.0 |
| 20260904063921 | 25 | 278 | 3.2 | 6.4 | 0.00 | 0.00 | 0.00 | 83 | 1019.9 |
| 20260904063042 | 24 | 250 | 3.2 | 8.0 | 0.00 | 0.00 | 0.00 | 83 | 1019.9 |
| 20260904062121 | 24 | 249 | 4.8 | 11.3 | 0.00 | 0.00 | 0.00 | 83 | 1020.0 |
| 20260904061221 | 24 | 242 | 3.2 | 8.0 | 0.00 | 0.00 | 0.00 | 83 | 1019.8 |
| 20260904060342 | 24 | 241 | 4.8 | 6.4 | 0.00 | 0.00 | 0.00 | 83 | 1019.7 |
| 20260904055421 | 24 | 248 | 4.8 | 14.5 | 0.00 | 0.00 | 0.00 | 82 | 1019.7 |
| 20260904054521 | 24 | 244 | 4.8 | 14.5 | 0.00 | 0.00 | 0.00 | 82 | 1019.6 |
| 20260904053621 | 25 | 231 | 4.8 | 12.9 | 0.00 | 0.00 | 0.00 | 80 | 1019.7 |
| 20260904052721 | 25 | 239 | 4.8 | 14.5 | 0.00 | 0.00 | 0.00 | 79 | 1019.6 |
| 20260904051821 | 25 | 225 | 3.2 | 9.7 | 0.00 | 0.00 | 0.00 | 77 | 1019.4 |
| 20260904050921 | 25 | 258 | 3.2 | 8.0 | 0.00 | 0.00 | 0.00 | 76 | 1019.3 |
| 20260904050021 | 25 | 255 | 3.2 | 8.0 | 0.00 | 0.00 | 0.00 | 75 | 1019.2 |
| 20260904045121 | 26 | 246 | 6.4 | 11.3 | 0.00 | 0.00 | 0.00 | 74 | 1019.2 |
| 20260904044221 | 26 | 238 | 8.0 | 16.1 | 0.00 | 0.00 | 0.00 | 73 | 1019.4 |
| 20260904043321 | 26 | 244 | 6.4 | 14.5 | 0.00 | 0.00 | 0.00 | 71 | 1019.4 |
| 20260904042421 | 26 | 256 | 6.4 | 16.1 | 0.00 | 0.00 | 0.00 | 70 | 1019.5 |
| 20260904041521 | 26 | 269 | 9.7 | 19.3 | 0.00 | 0.00 | 0.00 | 70 | 1019.3 |
| 20260904040621 | 26 | 273 | 8.0 | 20.9 | 0.00 | 0.00 | 0.00 | 69 | 1019.4 |
| 20260904035721 | 26 | 275 | 4.8 | 14.5 | 0.00 | 0.00 | 0.00 | 68 | 1019.3 |
| 20260904034820 | 26 | 271 | 4.8 | 14.5 | 0.00 | 0.00 | 0.00 | 69 | 1019.3 |
| 20260904033920 | 26 | 257 | 4.8 | 9.7 | 0.00 | 0.00 | 0.00 | 71 | 1019.2 |
| 20260904033021 | 26 | 243 | 4.8 | 11.3 | 0.00 | 0.00 | 0.00 | 72 | 1019.2 |
| 20260904032121 | 26 | 226 | 3.2 | 11.3 | 0.00 | 0.00 | 0.00 | 74 | 1019.2 |
| 20260904031221 | 26 | 228 | 4.8 | 8.0 | 0.00 | 0.00 | 0.00 | 74 | 1019.2 |
| 20260904030320 | 25 | 229 | 8.0 | 12.9 | 0.00 | 0.00 | 0.00 | 75 | 1019.2 |
| 20260904025420 | 25 | 235 | 8.0 | 17.7 | 0.00 | 0.00 | 0.00 | 75 | 1019.3 |
| 20260904024520 | 26 | 235 | 8.0 | 17.7 | 0.00 | 0.00 | 0.00 | 74 | 1019.1 |
| 20260904023641 | 26 | 227 | 4.8 | 17.7 | 0.00 | 0.00 | 0.00 | 72 | 1018.9 |
| 20260904022720 | 27 | 219 | 3.2 | 11.3 | 0.00 | 0.00 | 0.00 | 70 | 1018.8 |
| 20260904021820 | 27 | 224 | 4.8 | 11.3 | 0.00 | 0.00 | 0.00 | 68 | 1018.8 |
| 20260904020920 | 27 | 225 | 4.8 | 12.9 | 0.00 | 0.00 | 0.00 | 67 | 1018.7 |
| 20260904020020 | 28 | 226 | 4.8 | 9.7 | 0.00 | 0.00 | 0.00 | 66 | 1018.6 |
| 20260904015141 | 28 | 206 | 3.2 | 11.3 | 0.00 | 0.00 | 0.00 | 64 | 1018.6 |
| 20260904014220 | 28 | 218 | 4.8 | 8.0 | 0.00 | 0.00 | 0.00 | 64 | 1018.7 |
| 20260904013341 | 29 | 231 | 3.2 | 8.0 | 0.00 | 0.00 | 0.00 | 63 | 1018.6 |
| 20260904012441 | 29 | 231 | 3.2 | 6.4 | 0.00 | 0.00 | 0.00 | 62 | 1018.7 |
| 20260904011520 | 30 | 231 | 1.6 | 4.8 | 0.00 | 0.00 | 0.00 | 61 | 1018.8 |
| 20260904010620 | 30 | 231 | 1.6 | 4.8 | 0.00 | 0.00 | 0.00 | 61 | 1018.7 |
| 20260904005720 | 30 | 231 | 1.6 | 4.8 | 0.00 | 0.00 | 0.00 | 60 | 1018.7 |
| 20260904004820 | 30 | 231 | 3.2 | 4.8 | 0.00 | 0.00 | 0.00 | 59 | 1018.7 |
| 20260904003920 | 30 | 239 | 3.2 | 6.4 | 0.00 | 0.00 | 0.00 | 59 | 1018.7 |
| 20260904003020 | 31 | 263 | 1.6 | 4.8 | 0.00 | 0.00 | 0.00 | 58 | 1018.7 |
| 20260904002120 | 31 | 263 | 3.2 | 3.2 | 0.00 | 0.00 | 0.00 | 58 | 1018.6 |
| 20260904001241 | 31 | 263 | 3.2 | 6.4 | 0.00 | 0.00 | 0.00 | 57 | 1018.7 |
| 20260904000320 | 31 | 263 | 1.6 | 4.8 | 0.00 | 0.00 | 0.00 | 57 | 1018.6 |
| 20260903235441 | 31 | 263 | 1.6 | 3.2 | 0.00 | 0.00 | 0.00 | 56 | 1018.6 |
| 20260903234541 | 31 | 263 | 1.6 | 4.8 | 0.00 | 0.00 | 0.00 | 56 | 1018.6 |
| 20260903233620 | 31 | 263 | 3.2 | 4.8 | 0.00 | 0.00 | 0.00 | 56 | 1018.7 |
| 20260903232720 | 31 | 263 | 3.2 | 6.4 | 0.00 | 0.00 | 0.00 | 55 | 1018.7 |
| 20260903231820 | 31 | 263 | 3.2 | 4.8 | 0.00 | 0.00 | 0.00 | 55 | 1018.6 |
| 20260903230920 | 31 | 265 | 3.2 | 6.4 | 0.00 | 0.00 | 0.00 | 55 | 1018.6 |
| 20260903230020 | 32 | 283 | 4.8 | 6.4 | 0.00 | 0.00 | 0.00 | 55 | 1018.5 |
| 20260903225120 | 32 | 275 | 3.2 | 9.7 | 0.00 | 0.00 | 0.00 | 55 | 1018.6 |
| 20260903224241 | 32 | 280 | 3.2 | 6.4 | 0.00 | 0.00 | 0.00 | 55 | 1018.6 |
| 20260903223320 | 32 | 307 | 3.2 | 8.0 | 0.00 | 0.00 | 0.00 | 55 | 1018.6 |
| 20260903222420 | 32 | 310 | 3.2 | 8.0 | 0.00 | 0.00 | 0.00 | 55 | 1018.6 |
| 20260903221520 | 32 | 311 | 3.2 | 12.9 | 0.00 | 0.00 | 0.00 | 55 | 1018.6 |
| 20260903220620 | 32 | 312 | 3.2 | 12.9 | 0.00 | 0.00 | 0.00 | 55 | 1018.6 |
| 20260903215720 | 32 | 299 | 4.8 | 12.9 | 0.00 | 0.00 | 0.00 | 55 | 1018.6 |
| 20260903214820 | 32 | 305 | 4.8 | 14.5 | 0.00 | 0.00 | 0.00 | 54 | 1018.6 |
| 20260903213920 | 32 | 294 | 4.8 | 12.9 | 0.00 | 0.00 | 0.00 | 53 | 1018.6 |
| 20260903213019 | 33 | 272 | 4.8 | 11.3 | 0.00 | 0.00 | 0.00 | 53 | 1018.5 |
| 20260903212141 | 33 | 271 | 6.4 | 11.3 | 0.00 | 0.00 | 0.00 | 53 | 1018.5 |
| 20260903211220 | 33 | 250 | 6.4 | 11.3 | 0.00 | 0.00 | 0.00 | 52 | 1018.5 |
| 20260903210320 | 33 | 240 | 4.8 | 14.5 | 0.00 | 0.00 | 0.00 | 52 | 1018.4 |
| 20260903205419 | 33 | 232 | 6.4 | 12.9 | 0.00 | 0.00 | 0.00 | 51 | 1018.2 |
| 20260903204520 | 34 | 242 | 6.4 | 12.9 | 0.00 | 0.00 | 0.00 | 49 | 1018.1 |
| 20260903203619 | 35 | 262 | 6.4 | 14.5 | 0.00 | 0.00 | 0.00 | 48 | 1017.8 |
| 20260903202719 | 35 | 265 | 6.4 | 17.7 | 0.00 | 0.00 | 0.00 | 48 | 1017.6 |
| 20260903201819 | 35 | 260 | 6.4 | 14.5 | 0.00 | 0.00 | 0.00 | 48 | 1017.5 |
| 20260903200940 | 35 | 249 | 6.4 | 14.5 | 0.00 | 0.00 | 0.00 | 48 | 1017.4 |
| 20260903200019 | 35 | 226 | 6.4 | 16.1 | 0.00 | 0.00 | 0.00 | 48 | 1017.2 |
| 20260903195119 | 36 | 235 | 6.4 | 14.5 | 0.00 | 0.00 | 0.00 | 47 | 1017.1 |
| 20260903194219 | 36 | 239 | 8.0 | 14.5 | 0.00 | 0.00 | 0.00 | 45 | 1016.9 |
| 20260903193340 | 36 | 242 | 6.4 | 20.9 | 0.00 | 0.00 | 0.00 | 43 | 1016.9 |
| 20260903192419 | 37 | 248 | 4.8 | 11.3 | 0.00 | 0.00 | 0.00 | 40 | 1016.7 |
| 20260903191519 | 38 | 257 | 4.8 | 11.3 | 0.00 | 0.00 | 0.00 | 36 | 1016.5 |
| 20260903190619 | 38 | 254 | 6.4 | 11.3 | 0.00 | 0.00 | 0.00 | 33 | 1016.5 |
| 20260903185740 | 39 | 237 | 4.8 | 12.9 | 0.00 | 0.00 | 0.00 | 29 | 1016.4 |
| 20260903184819 | 41 | 278 | 1.6 | 12.9 | 0.00 | 0.00 | 0.00 | 25 | 1016.3 |
| 20260903183920 | 41 | 303 | 1.6 | 3.2 | 0.00 | 0.00 | 0.00 | 24 | 1016.2 |
| 20260903183019 | 42 | 303 | 1.6 | 3.2 | 0.00 | 0.00 | 0.00 | 23 | 1016.2 |
| 20260903182119 | 42 | 303 | 1.6 | 4.8 | 0.00 | 0.00 | 0.00 | 23 | 1016.2 |
| 20260903181219 | 42 | 303 | 1.6 | 3.2 | 0.00 | 0.00 | 0.00 | 22 | 1016.2 |
| 20260903180319 | 42 | 303 | 1.6 | 4.8 | 0.00 | 0.00 | 0.00 | 21 | 1016.2 |
| 20260903175419 | 43 | 301 | 1.6 | 4.8 | 0.00 | 0.00 | 0.00 | 22 | 1016.2 |
| 20260903174519 | 43 | 301 | 3.2 | 4.8 | 0.00 | 0.00 | 0.00 | 22 | 1016.2 |
| 20260903173619 | 42 | 317 | 3.2 | 6.4 | 0.00 | 0.00 | 0.00 | 21 | 1016.2 |
| 20260903172719 | 42 | 334 | 3.2 | 6.4 | 0.00 | 0.00 | 0.00 | 22 | 1016.3 |
| 20260903171819 | 42 | 329 | 6.4 | 9.7 | 0.00 | 0.00 | 0.00 | 21 | 1016.3 |
| 20260903170919 | 42 | 352 | 4.8 | 11.3 | 0.00 | 0.00 | 0.00 | 21 | 1016.2 |
| 20260903170040 | 43 | 340 | 4.8 | 9.7 | 0.00 | 0.00 | 0.00 | 21 | 1016.3 |
| 20260903165119 | 43 | 329 | 3.2 | 9.7 | 0.00 | 0.00 | 0.00 | 22 | 1016.3 |
| 20260903164219 | 43 | 346 | 4.8 | 11.3 | 0.00 | 0.00 | 0.00 | 21 | 1016.3 |
| 20260903163319 | 42 | 326 | 6.4 | 12.9 | 0.00 | 0.00 | 0.00 | 20 | 1016.3 |
| 20260903162419 | 42 | 325 | 6.4 | 12.9 | 0.00 | 0.00 | 0.00 | 20 | 1016.4 |
| 20260903161518 | 42 | 336 | 4.8 | 12.9 | 0.00 | 0.00 | 0.00 | 21 | 1016.3 |
| 20260903160618 | 42 | 349 | 4.8 | 9.7 | 0.00 | 0.00 | 0.00 | 21 | 1016.3 |